Regional Weather Roundup
Issued by NWS Green Bay, WI

Home | Current Version | Previous Version | Text Only | Print | Product List | Glossary On
Versions: 1 2 3 4 5 6 7 8 9 10 11 12 13 14 15 16 17 18 19 20 21 22 23 24 25 26 27 28 29 30 31 32 33 34 35 36 37 38 39 40 41 42 43 44 45 46 47 48 49 50
000
ASUS43 KGRB 250911
RWRGRB

NORTH-CENTRAL AND NORTHEAST WISCONSIN REGIONAL WEATHER ROUNDUP
NATIONAL WEATHER SERVICE GREEN BAY WI
400 AM CDT SUN JUN 25 2017

WIZ005-009-010>012-018-019-251000-
NORTH CENTRAL WISCONSIN

CITY           SKY/WX    TMP DP  RH WIND       PRES   REMARKS
IRONWOOD       FOG       52  52 100 NW5       29.97S VSB 3/4
MANITOWISH WTR CLOUDY    51  51 100 NW7       29.97S
ARBOR VITAE    DRIZZLE   53  51  93 N7        29.96S
EAGLE RIVER    DRIZZLE   51  51  99 NW6       29.96R
LAND O LAKES   CLOUDY    51  50  97 N3        29.97S
RHINELANDER    CLOUDY    51  51 100 NW7       29.96S
PHILLIPS       MOCLDY    48  48 100 CALM      29.98F
ANTIGO         CLOUDY    49  49  99 W9        29.95S
TOMAHAWK       NOT AVBL
MERRILL        CLOUDY    49  49 100 W5        29.98S
$$

WIZ013-073-251000-
NORTHEAST WISCONSIN

CITY           SKY/WX    TMP DP  RH WIND       PRES   REMARKS
IRON MOUNTAIN  CLOUDY    52  49  89 NW5       29.91S
MARINETTE      LGT RAIN  53  51  93 CALM      29.92F
OCONTO         CLOUDY    52  51  96 SW5       29.92F
$$

WIZ017-030-035>037-045-251000-
CENTRAL WISCONSIN

CITY           SKY/WX    TMP DP  RH WIND       PRES   REMARKS
MEDFORD        CLOUDY    48  47  93 W7        29.99S
WAUSAU         PTCLDY    50  48  93 W9        29.96S
MOSINEE        CLEAR     48  46  93 W7        29.99S
MARSHFIELD     CLEAR     49  45  86 W8        30.00R
WISC RAPIDS    CLEAR     49  45  86 W7        30.02S
STEVENS POINT  PTCLDY    49  47  92 W8        30.00R
WAUPACA        CLOUDY    53  49  89 W7        29.99S
SHAWANO        LGT RAIN  54  51  89 SW6       29.94F
CLINTONVILLE   CLOUDY    54  46  76 W7        29.96F
WAUTOMA        MOCLDY    50  48  93 W6        30.01S
$$

WIZ038-039-048-051-251000-
FOX VALLEY

CITY           SKY/WX    TMP DP  RH WIND       PRES   REMARKS
NWS GREEN BAY  LGT RAIN  53  53 100 SW5       29.95F
APPLETON       CLOUDY    50  46  87 W9        29.96S
OSHKOSH        MOCLDY    52  47  83 W7        29.98S
FOND DU LAC    MOCLDY    51  46  83 W7        30.00S
$$

WIZ022-050-052-251000-
EAST CENTRAL WISCONSIN

CITY           SKY/WX    TMP DP  RH WIND       PRES   REMARKS
EPHRAIM        LGT RAIN  53  51  94 W6        29.91S
WASHINGTON ISL CLOUDY    55  52  90 NW6       29.90F
STURGEON BAY   LGT RAIN  54  51  90 NW7         N/A
MANITOWOC      CLOUDY    53  49  86 W7        29.97S
SHEBOYGAN      CLOUDY    52  48  86 W13       29.98S
$$

LMZ563-521-522-541>543-251000-
LAKESHORE

STATION/POSITION TIME  TEMP    WIND        PRES    VSBY  WAVE
                       AIR SEA DIR/SP/G                  HT/PER
                 (UTC) (F)     (DEG/KT/KT) (MB)    (MI)  (FT/S)
SHEBOYGAN LKSHOR 0900   53     260/ 10/ 12 1014.9F
KEWAUNEE LKSHORE 0848   54     270/  5/  8 1013.6F
NORTHPORT PIER   0840   56     290/  7/ 12 1012.9S
N MID LAKE BUOY  0850   56 57  340/ 10/ 12 1012.9F         1
S GREEN BAY BUOY 0900   56     260/ 14/ 17 1013.2
CHAMBERS ISLAND  0840   55     240/  6/ 10 1012.9F
MENOMINEE LKSHOR 0848          260/  6/  9 1012.4F
$$



USA.gov is the U.S. government's official web portal to all federal, state and local government web resources and services.